Year,Month,Day,Hour,Minute,Value (Times are PST for temperature in C)
2011,03,25,01,03,7.70
2011,03,25,01,04,7.70
2011,03,25,01,05,7.70
2011,03,25,01,06,7.70
2011,03,25,01,07,7.70
2011,03,25,01,08,7.70
2011,03,25,01,09,7.70
2011,03,25,01,10,7.70
2011,03,25,01,11,7.60
2011,03,25,01,12,7.60
2011,03,25,01,13,7.60
2011,03,25,01,14,7.60
2011,03,25,01,15,7.60
2011,03,25,01,16,7.60
2011,03,25,01,17,7.60
2011,03,25,01,18,7.60
2011,03,25,01,19,7.60
2011,03,25,01,20,7.60
2011,03,25,01,21,7.60
2011,03,25,01,22,7.60
2011,03,25,01,23,7.60
2011,03,25,01,24,7.60
2011,03,25,01,25,7.60
2011,03,25,01,26,7.60
2011,03,25,01,27,7.60
2011,03,25,01,28,7.60
2011,03,25,01,29,7.60
2011,03,25,01,30,7.60
2011,03,25,01,31,7.60
2011,03,25,01,32,7.60
2011,03,25,01,33,7.60
2011,03,25,01,34,7.50
2011,03,25,01,35,7.50
2011,03,25,01,36,7.50
2011,03,25,01,37,7.50
2011,03,25,01,38,7.50
2011,03,25,01,39,7.50
2011,03,25,01,40,7.50
2011,03,25,01,41,7.40
2011,03,25,01,42,7.40
2011,03,25,01,43,7.40
2011,03,25,01,44,7.40
2011,03,25,01,45,7.40
2011,03,25,01,46,7.40
2011,03,25,01,47,7.40
2011,03,25,01,48,7.40
2011,03,25,01,49,7.40
2011,03,25,01,50,7.40
2011,03,25,01,51,7.40
2011,03,25,01,52,7.40
2011,03,25,01,53,7.40
2011,03,25,01,54,7.40
2011,03,25,01,55,7.40
2011,03,25,01,56,7.40
2011,03,25,01,57,7.40
2011,03,25,01,58,7.40
2011,03,25,01,59,7.40
2011,03,25,02,00,7.40
2011,03,25,02,01,7.40
2011,03,25,02,02,7.40
2011,03,25,02,03,7.30
2011,03,25,02,04,7.30
2011,03,25,02,05,7.30
2011,03,25,02,06,7.30
2011,03,25,02,07,7.30
2011,03,25,02,08,7.30
2011,03,25,02,09,7.30
2011,03,25,02,10,7.30
2011,03,25,02,11,7.30
2011,03,25,02,12,7.30
2011,03,25,02,13,7.30
2011,03,25,02,14,7.30
2011,03,25,02,15,7.30
2011,03,25,02,16,7.30
2011,03,25,02,17,7.30
2011,03,25,02,18,7.30
2011,03,25,02,19,7.20
2011,03,25,02,20,7.20
2011,03,25,02,21,7.20
2011,03,25,02,22,7.20
2011,03,25,02,23,7.20
2011,03,25,02,24,7.20
2011,03,25,02,25,7.20
2011,03,25,02,26,7.20
2011,03,25,02,27,7.20
2011,03,25,02,28,7.20
2011,03,25,02,29,7.20
2011,03,25,02,30,7.20
2011,03,25,02,31,7.20
2011,03,25,02,32,7.20
2011,03,25,02,33,7.20
2011,03,25,02,34,7.20
2011,03,25,02,35,7.20
2011,03,25,02,36,7.20
2011,03,25,02,37,7.20
2011,03,25,02,38,7.20
2011,03,25,02,39,7.20
2011,03,25,02,40,7.20
2011,03,25,02,41,7.20
2011,03,25,02,42,7.20
2011,03,25,02,43,7.20
2011,03,25,02,44,7.20
2011,03,25,02,45,7.20
2011,03,25,02,46,7.20
2011,03,25,02,47,7.20
2011,03,25,02,48,7.20
2011,03,25,02,49,7.20
2011,03,25,02,50,7.20
2011,03,25,02,51,7.20
2011,03,25,02,52,7.20
2011,03,25,02,53,7.20
2011,03,25,02,54,7.20
2011,03,25,02,55,7.20
2011,03,25,02,56,7.10
2011,03,25,02,57,7.10
2011,03,25,02,58,7.10
2011,03,25,02,59,7.10
2011,03,25,03,00,7.10
2011,03,25,03,01,7.10
2011,03,25,03,02,7.10
2011,03,25,03,04,7.10
2011,03,25,03,05,7.10
2011,03,25,03,06,7.10
2011,03,25,03,07,7.10
2011,03,25,03,08,7.10
2011,03,25,03,09,7.10
2011,03,25,03,10,7.10
2011,03,25,03,11,7.10
2011,03,25,03,12,7.10
2011,03,25,03,13,7.10
2011,03,25,03,14,7.10
2011,03,25,03,15,7.10
2011,03,25,03,16,7.10
2011,03,25,03,17,7.10
2011,03,25,03,18,7.10
2011,03,25,03,19,7.10
2011,03,25,03,20,7.10
2011,03,25,03,21,7.10
2011,03,25,03,22,7.10
2011,03,25,03,23,7.10
2011,03,25,03,24,7.10
2011,03,25,03,26,7.10
2011,03,25,03,27,7.10
2011,03,25,03,28,7.10
2011,03,25,03,29,7.10
2011,03,25,03,30,7.10
2011,03,25,03,31,7.10
2011,03,25,03,32,7.10
2011,03,25,03,33,7.10
2011,03,25,03,34,7.10
2011,03,25,03,35,7.10
2011,03,25,03,36,7.10
2011,03,25,03,37,7.10
2011,03,25,03,38,7.10
2011,03,25,03,39,7.10
2011,03,25,03,40,7.10
2011,03,25,03,41,7.10
2011,03,25,03,42,7.10
2011,03,25,03,43,7.10
2011,03,25,03,44,7.10
2011,03,25,03,45,7.10
2011,03,25,03,46,7.10
2011,03,25,03,47,7.10
2011,03,25,03,48,7.10
2011,03,25,03,49,7.10
2011,03,25,03,50,7.10
2011,03,25,03,51,7.10
2011,03,25,03,52,7.10
2011,03,25,03,53,7.10
2011,03,25,03,54,7.10
2011,03,25,03,55,7.20
2011,03,25,03,56,7.20
2011,03,25,03,57,7.20
2011,03,25,03,58,7.20
2011,03,25,03,59,7.20
2011,03,25,04,00,7.20
2011,03,25,04,01,7.20
2011,03,25,04,02,7.20
2011,03,25,04,03,7.10
2011,03,25,04,04,7.10
2011,03,25,04,05,7.10
2011,03,25,04,06,7.10
2011,03,25,04,07,7.10
2011,03,25,04,08,7.10
2011,03,25,04,09,7.10
2011,03,25,04,10,7.10
2011,03,25,04,11,7.10
2011,03,25,04,12,7.10
2011,03,25,04,13,7.10
2011,03,25,04,14,7.10
2011,03,25,04,15,7.10
2011,03,25,04,16,7.10
2011,03,25,04,17,7.10
2011,03,25,04,18,7.10
2011,03,25,04,19,7.10
2011,03,25,04,20,7.10
2011,03,25,04,21,7.10
2011,03,25,04,22,7.10
2011,03,25,04,23,7.10
2011,03,25,04,24,7.10
2011,03,25,04,25,7.10
2011,03,25,04,26,7.10
2011,03,25,04,27,7.10
2011,03,25,04,28,7.10
2011,03,25,04,29,7.10
2011,03,25,04,30,7.10
2011,03,25,04,31,7.10
2011,03,25,04,32,7.10
2011,03,25,04,33,7.10
2011,03,25,04,34,7.10
2011,03,25,04,35,7.10
2011,03,25,04,36,7.10
2011,03,25,04,37,7.10
2011,03,25,04,38,7.10
2011,03,25,04,39,7.10
2011,03,25,04,40,7.10
2011,03,25,04,41,7.10
2011,03,25,04,42,7.10
2011,03,25,04,43,7.10
2011,03,25,04,44,7.10
2011,03,25,04,45,7.10
2011,03,25,04,46,7.10
2011,03,25,04,47,7.10
2011,03,25,04,48,7.20
2011,03,25,04,49,7.20
2011,03,25,04,50,7.20
2011,03,25,04,51,7.20
2011,03,25,04,52,7.20
2011,03,25,04,53,7.20
2011,03,25,04,54,7.20
2011,03,25,04,55,7.10
2011,03,25,04,56,7.10
2011,03,25,04,57,7.10
2011,03,25,04,58,7.10
2011,03,25,04,59,7.10
2011,03,25,05,00,7.10
2011,03,25,05,01,7.10
2011,03,25,05,02,7.10
2011,03,25,05,03,7.10
2011,03,25,05,04,7.10
2011,03,25,05,05,7.10
2011,03,25,05,06,7.10
2011,03,25,05,07,7.10
2011,03,25,05,08,7.10
2011,03,25,05,09,7.10
2011,03,25,05,10,7.10
2011,03,25,05,11,7.10
2011,03,25,05,12,7.10
2011,03,25,05,13,7.10
2011,03,25,05,14,7.10
2011,03,25,05,15,7.10
2011,03,25,05,16,7.10
2011,03,25,05,17,7.10
2011,03,25,05,18,7.00
2011,03,25,05,19,7.00
2011,03,25,05,20,7.00
2011,03,25,05,21,7.00
2011,03,25,05,22,7.00
2011,03,25,05,23,7.00
2011,03,25,05,24,7.00
2011,03,25,05,25,7.00
2011,03,25,05,26,6.90
2011,03,25,05,27,6.90
2011,03,25,05,28,6.90
2011,03,25,05,29,6.90
2011,03,25,05,30,6.90
2011,03,25,05,31,6.90
2011,03,25,05,32,6.90
2011,03,25,05,33,6.90
2011,03,25,05,34,7.00
2011,03,25,05,35,7.00
2011,03,25,05,36,7.00
2011,03,25,05,37,7.00
2011,03,25,05,38,7.00
2011,03,25,05,39,7.00
2011,03,25,05,40,7.00
2011,03,25,05,41,7.00
2011,03,25,05,42,7.00
2011,03,25,05,43,7.00
2011,03,25,05,44,7.00
2011,03,25,05,45,7.00
2011,03,25,05,46,7.00
2011,03,25,05,47,7.00
2011,03,25,05,48,7.00
2011,03,25,05,49,7.00
2011,03,25,05,50,7.00
2011,03,25,05,51,7.00
2011,03,25,05,52,7.00
2011,03,25,05,53,7.00
2011,03,25,05,54,7.00
2011,03,25,05,55,7.00
2011,03,25,05,56,7.00
2011,03,25,05,57,7.00
2011,03,25,05,58,7.00
2011,03,25,05,59,7.00
2011,03,25,06,00,7.00
2011,03,25,06,01,7.00
2011,03,25,06,02,7.00
2011,03,25,06,03,7.00
2011,03,25,06,04,7.00
2011,03,25,06,05,7.00
2011,03,25,06,06,7.00
2011,03,25,06,07,7.00
2011,03,25,06,08,7.00
2011,03,25,06,09,7.00
2011,03,25,06,10,7.00
2011,03,25,06,11,7.00
2011,03,25,06,12,7.00
2011,03,25,06,13,7.00
2011,03,25,06,14,7.00
2011,03,25,06,15,7.00
2011,03,25,06,16,7.00
2011,03,25,06,17,7.00
2011,03,25,06,18,7.00
2011,03,25,06,19,7.00
2011,03,25,06,20,7.00
2011,03,25,06,21,7.00
2011,03,25,06,22,7.00
2011,03,25,06,23,7.00
2011,03,25,06,24,7.00
2011,03,25,06,25,7.00
2011,03,25,06,26,6.90
2011,03,25,06,27,6.90
2011,03,25,06,28,6.90
2011,03,25,06,29,6.90
2011,03,25,06,30,6.90
2011,03,25,06,31,6.90
2011,03,25,06,32,6.90
2011,03,25,06,33,7.00
2011,03,25,06,34,7.00
2011,03,25,06,35,7.00
2011,03,25,06,36,7.00
2011,03,25,06,37,7.00
2011,03,25,06,38,7.00
2011,03,25,06,39,7.00
2011,03,25,06,40,7.00
2011,03,25,06,41,6.90
2011,03,25,06,42,6.90
2011,03,25,06,43,6.90
2011,03,25,06,44,6.90
2011,03,25,06,45,6.90
2011,03,25,06,46,6.90
2011,03,25,06,47,6.90
2011,03,25,06,48,7.00
2011,03,25,06,49,7.00
2011,03,25,06,50,7.00
2011,03,25,06,51,7.00
2011,03,25,06,52,7.00
2011,03,25,06,53,7.00
2011,03,25,06,54,7.00
2011,03,25,06,55,6.90
2011,03,25,06,56,6.90
2011,03,25,06,57,6.90
2011,03,25,06,58,6.90
2011,03,25,06,59,6.90
2011,03,25,07,00,6.90
2011,03,25,07,01,6.90
2011,03,25,07,02,6.90
2011,03,25,07,03,6.90
2011,03,25,07,04,6.90
2011,03,25,07,05,6.90
2011,03,25,07,06,6.90
2011,03,25,07,07,6.90
2011,03,25,07,08,6.90
2011,03,25,07,09,6.90
2011,03,25,07,10,6.90
2011,03,25,07,11,6.90
2011,03,25,07,12,6.90
2011,03,25,07,13,6.90
2011,03,25,07,14,6.90
2011,03,25,07,15,6.90
2011,03,25,07,16,6.90
2011,03,25,07,17,6.90
2011,03,25,07,18,7.00
2011,03,25,07,19,7.00
2011,03,25,07,20,7.00
2011,03,25,07,21,7.00
2011,03,25,07,22,7.00
2011,03,25,07,23,7.00
2011,03,25,07,24,7.00
2011,03,25,07,25,7.00
2011,03,25,07,26,6.90
2011,03,25,07,27,6.90
2011,03,25,07,28,6.90
2011,03,25,07,29,6.90
2011,03,25,07,30,6.90
2011,03,25,07,31,6.90
2011,03,25,07,32,6.90
2011,03,25,07,33,6.90
2011,03,25,07,34,6.90
2011,03,25,07,35,6.90
2011,03,25,07,36,6.90
2011,03,25,07,37,6.90
2011,03,25,07,38,6.90
2011,03,25,07,39,6.90
2011,03,25,07,40,6.90
2011,03,25,07,41,6.90
2011,03,25,07,42,6.90
2011,03,25,07,43,6.90
2011,03,25,07,44,6.90
2011,03,25,07,45,6.90
2011,03,25,07,46,6.90
2011,03,25,07,47,6.90
2011,03,25,07,48,6.90
2011,03,25,07,49,6.90
2011,03,25,07,50,6.90
2011,03,25,07,51,6.90
2011,03,25,07,52,6.90
2011,03,25,07,53,6.90
2011,03,25,07,54,6.90
2011,03,25,07,55,6.90
2011,03,25,07,56,6.90
2011,03,25,07,57,6.90
2011,03,25,07,58,6.90
2011,03,25,07,59,6.90
2011,03,25,08,00,6.90
2011,03,25,08,01,6.90
2011,03,25,08,02,6.90
2011,03,25,08,03,6.90
2011,03,25,08,04,6.90
2011,03,25,08,05,6.90
2011,03,25,08,06,6.90
2011,03,25,08,07,6.90
2011,03,25,08,08,6.90
2011,03,25,08,09,6.90
2011,03,25,08,11,6.80
2011,03,25,08,12,6.80
2011,03,25,08,13,6.80
2011,03,25,08,14,6.80
2011,03,25,08,15,6.80
2011,03,25,08,16,6.80
2011,03,25,08,17,6.80
2011,03,25,08,18,6.90
2011,03,25,08,19,6.90
2011,03,25,08,20,6.90
2011,03,25,08,21,6.90
2011,03,25,08,22,6.90
2011,03,25,08,23,6.90
2011,03,25,08,24,6.90
2011,03,25,08,25,6.90
2011,03,25,08,26,6.90
2011,03,25,08,27,6.90
2011,03,25,08,28,6.90
2011,03,25,08,29,6.90
2011,03,25,08,30,6.90
2011,03,25,08,31,6.90
2011,03,25,08,32,6.90
2011,03,25,08,33,6.80
2011,03,25,08,34,6.80
2011,03,25,08,35,6.80
2011,03,25,08,36,6.80
2011,03,25,08,37,6.80
2011,03,25,08,38,6.80
2011,03,25,08,39,6.80
2011,03,25,08,40,6.80
2011,03,25,08,41,6.80
2011,03,25,08,42,6.80
2011,03,25,08,43,6.80
2011,03,25,08,44,6.80
2011,03,25,08,45,6.80
2011,03,25,08,46,6.80
2011,03,25,08,47,6.80
2011,03,25,08,48,6.80
2011,03,25,08,49,6.80
2011,03,25,08,50,6.80
2011,03,25,08,51,6.80
2011,03,25,08,52,6.80
2011,03,25,08,53,6.80
2011,03,25,08,54,6.80
2011,03,25,08,55,6.80
2011,03,25,08,56,6.80
2011,03,25,08,57,6.80
2011,03,25,08,58,6.80
2011,03,25,08,59,6.80
2011,03,25,09,00,6.80
2011,03,25,09,01,6.80
2011,03,25,09,02,6.80
2011,03,25,09,03,6.80
2011,03,25,09,04,6.70
2011,03,25,09,05,6.70
2011,03,25,09,06,6.70
2011,03,25,09,07,6.70
2011,03,25,09,08,6.70
2011,03,25,09,09,6.70
2011,03,25,09,10,6.70
2011,03,25,09,11,6.60
2011,03,25,09,12,6.60
2011,03,25,09,13,6.60
2011,03,25,09,14,6.60
2011,03,25,09,15,6.60
2011,03,25,09,16,6.60
2011,03,25,09,17,6.60
2011,03,25,09,18,6.40
2011,03,25,09,19,6.40
2011,03,25,09,20,6.40
2011,03,25,09,21,6.40
2011,03,25,09,22,6.40
2011,03,25,09,23,6.40
2011,03,25,09,24,6.40
2011,03,25,09,25,6.40
2011,03,25,09,26,6.40
2011,03,25,09,27,6.40
2011,03,25,09,28,6.40
2011,03,25,09,29,6.40
2011,03,25,09,30,6.40
2011,03,25,09,31,6.40
2011,03,25,09,32,6.40
2011,03,25,09,33,6.50
2011,03,25,09,34,6.50
2011,03,25,09,35,6.50
2011,03,25,09,36,6.50
2011,03,25,09,37,6.50
2011,03,25,09,38,6.50
2011,03,25,09,39,6.50
2011,03,25,09,40,6.60
2011,03,25,09,41,6.60
2011,03,25,09,42,6.60
2011,03,25,09,43,6.60
2011,03,25,09,44,6.60
2011,03,25,09,45,6.60
2011,03,25,09,46,6.60
2011,03,25,09,47,6.60
2011,03,25,09,48,6.60
2011,03,25,09,49,6.50
2011,03,25,09,50,6.50
2011,03,25,09,51,6.50
2011,03,25,09,52,6.50
2011,03,25,09,53,6.50
2011,03,25,09,54,6.50
2011,03,25,09,55,6.60
2011,03,25,09,56,6.60
2011,03,25,09,57,6.60
2011,03,25,09,58,6.60
2011,03,25,09,59,6.60
2011,03,25,10,00,6.60
2011,03,25,10,01,6.60
2011,03,25,10,02,6.60
2011,03,25,10,03,6.80
2011,03,25,10,04,6.80
2011,03,25,10,05,6.80
2011,03,25,10,06,6.80
2011,03,25,10,07,6.80
2011,03,25,10,08,6.80
2011,03,25,10,09,6.80
2011,03,25,10,10,6.80
2011,03,25,10,11,6.80
2011,03,25,10,12,6.80
2011,03,25,10,13,6.80
2011,03,25,10,14,6.80
2011,03,25,10,15,6.80
2011,03,25,10,16,6.80
2011,03,25,10,17,6.80
2011,03,25,10,18,6.80
2011,03,25,10,19,6.80
2011,03,25,10,20,6.80
2011,03,25,10,21,6.80
2011,03,25,10,22,6.80
2011,03,25,10,23,6.80
2011,03,25,10,24,6.80
2011,03,25,10,25,6.70
2011,03,25,10,26,6.70
2011,03,25,10,27,6.70
2011,03,25,10,28,6.70
2011,03,25,10,29,6.70
2011,03,25,10,30,6.70
2011,03,25,10,31,6.70
2011,03,25,10,32,6.70
2011,03,25,10,33,6.70
2011,03,25,10,34,6.70
2011,03,25,10,35,6.70
2011,03,25,10,36,6.70
2011,03,25,10,37,6.70
2011,03,25,10,38,6.70
2011,03,25,10,39,6.70
2011,03,25,10,40,6.60
2011,03,25,10,41,6.60
2011,03,25,10,42,6.60
2011,03,25,10,43,6.60
2011,03,25,10,44,6.60
2011,03,25,10,45,6.60
2011,03,25,10,46,6.60
2011,03,25,10,47,6.60
2011,03,25,10,48,6.60
2011,03,25,10,49,6.50
2011,03,25,10,50,6.50
2011,03,25,10,51,6.50
2011,03,25,10,52,6.50
2011,03,25,10,53,6.50
2011,03,25,10,54,6.50
2011,03,25,10,55,6.50
2011,03,25,10,56,6.60
2011,03,25,10,57,6.60
2011,03,25,10,58,6.60
2011,03,25,10,59,6.60
2011,03,25,11,00,6.60
2011,03,25,11,01,6.60
2011,03,25,11,02,6.60
2011,03,25,11,03,6.60
2011,03,25,11,04,6.60
2011,03,25,11,05,6.60
2011,03,25,11,06,6.60
2011,03,25,11,07,6.60
2011,03,25,11,08,6.60
2011,03,25,11,09,6.60
2011,03,25,11,10,6.60
2011,03,25,11,11,6.60
2011,03,25,11,12,6.60
2011,03,25,11,13,6.60
2011,03,25,11,14,6.60
2011,03,25,11,15,6.60
2011,03,25,11,16,6.60
2011,03,25,11,17,6.60
2011,03,25,11,18,6.60
2011,03,25,11,19,6.60
2011,03,25,11,20,6.60
2011,03,25,11,21,6.60
2011,03,25,11,22,6.60
2011,03,25,11,23,6.60
2011,03,25,11,24,6.60
2011,03,25,11,25,6.60
2011,03,25,11,26,6.60
2011,03,25,11,27,6.60
2011,03,25,11,28,6.60
2011,03,25,11,29,6.60
2011,03,25,11,30,6.60
2011,03,25,11,31,6.60
2011,03,25,11,32,6.60
2011,03,25,11,33,6.60
2011,03,25,11,34,6.60
2011,03,25,11,35,6.60
2011,03,25,11,36,6.60
2011,03,25,11,37,6.60
2011,03,25,11,38,6.60
2011,03,25,11,39,6.60
2011,03,25,11,40,6.50
2011,03,25,11,41,6.50
2011,03,25,11,42,6.50
2011,03,25,11,43,6.50
2011,03,25,11,44,6.50
2011,03,25,11,45,6.50
2011,03,25,11,46,6.50
2011,03,25,11,47,6.50
2011,03,25,11,48,6.40
2011,03,25,11,49,6.40
2011,03,25,11,50,6.40
2011,03,25,11,51,6.40
2011,03,25,11,52,6.40
2011,03,25,11,53,6.40
2011,03,25,11,54,6.40
2011,03,25,11,55,6.50
2011,03,25,11,56,6.50
2011,03,25,11,57,6.50
2011,03,25,11,58,6.50
2011,03,25,11,59,6.50
2011,03,25,12,00,6.50
2011,03,25,12,01,6.50
2011,03,25,12,02,6.50
2011,03,25,12,03,6.60
2011,03,25,12,04,6.60
2011,03,25,12,05,6.60
2011,03,25,12,06,6.60
2011,03,25,12,07,6.60
2011,03,25,12,08,6.60
2011,03,25,12,09,6.60
2011,03,25,12,10,6.70
2011,03,25,12,11,6.70
2011,03,25,12,12,6.70
2011,03,25,12,13,6.70
2011,03,25,12,14,6.70
2011,03,25,12,15,6.70
2011,03,25,12,16,6.70
2011,03,25,12,17,6.70
2011,03,25,12,18,6.70
2011,03,25,12,19,6.70
2011,03,25,12,20,6.70
2011,03,25,12,21,6.70
2011,03,25,12,22,6.70
2011,03,25,12,23,6.70
2011,03,25,12,24,6.70
2011,03,25,12,25,6.70
2011,03,25,12,26,6.70
2011,03,25,12,27,6.70
2011,03,25,12,28,6.70
2011,03,25,12,29,6.70
2011,03,25,12,30,6.70
2011,03,25,12,31,6.70
2011,03,25,12,32,6.70
2011,03,25,12,33,6.80
2011,03,25,12,34,6.80
2011,03,25,12,35,6.80
2011,03,25,12,36,6.80
2011,03,25,12,37,6.80
2011,03,25,12,38,6.80
2011,03,25,12,39,6.80
2011,03,25,12,40,6.80
2011,03,25,12,41,6.80
2011,03,25,12,42,6.80
2011,03,25,12,43,6.80
2011,03,25,12,44,6.80
2011,03,25,12,45,6.80
2011,03,25,12,46,6.80
2011,03,25,12,47,6.80
2011,03,25,12,48,6.90
2011,03,25,12,49,6.90
2011,03,25,12,50,6.90
2011,03,25,12,51,6.90
2011,03,25,12,52,6.90
2011,03,25,12,53,6.90
2011,03,25,12,54,6.90
2011,03,25,12,55,7.00
2011,03,25,12,56,7.00
2011,03,25,12,57,7.00
2011,03,25,12,58,7.00
2011,03,25,12,59,7.00
2011,03,25,13,00,7.00
2011,03,25,13,01,7.00
2011,03,25,13,02,7.00
2011,03,25,13,03,7.00
2011,03,25,13,04,7.10
2011,03,25,13,05,7.10
2011,03,25,13,06,7.10
2011,03,25,13,07,7.10
2011,03,25,13,08,7.10
2011,03,25,13,09,7.10
2011,03,25,13,10,7.10
2011,03,25,13,11,7.10
2011,03,25,13,12,7.10
2011,03,25,13,13,7.10
2011,03,25,13,14,7.10
2011,03,25,13,15,7.10
2011,03,25,13,16,7.10
2011,03,25,13,17,7.10
2011,03,25,13,18,7.10
2011,03,25,13,19,7.30
2011,03,25,13,20,7.30
2011,03,25,13,21,7.30
2011,03,25,13,22,7.30
2011,03,25,13,23,7.30
2011,03,25,13,24,7.30
2011,03,25,13,26,7.30
2011,03,25,13,27,7.30
2011,03,25,13,28,7.30
2011,03,25,13,29,7.30
2011,03,25,13,30,7.30
2011,03,25,13,31,7.30
2011,03,25,13,32,7.30
2011,03,25,13,33,7.30
2011,03,25,13,34,7.30
2011,03,25,13,35,7.30
2011,03,25,13,36,7.30
2011,03,25,13,37,7.30
2011,03,25,13,38,7.30
2011,03,25,13,39,7.30
2011,03,25,13,40,7.30
2011,03,25,13,41,7.30
2011,03,25,13,42,7.30
2011,03,25,13,43,7.30
2011,03,25,13,44,7.30
2011,03,25,13,45,7.30
2011,03,25,13,46,7.30
2011,03,25,13,47,7.30
2011,03,25,13,48,7.40
2011,03,25,13,49,7.40
2011,03,25,13,50,7.40
2011,03,25,13,51,7.40
2011,03,25,13,52,7.40
2011,03,25,13,53,7.40
2011,03,25,13,54,7.40
2011,03,25,13,55,7.60
2011,03,25,13,56,7.60
2011,03,25,13,57,7.60
2011,03,25,13,58,7.60
2011,03,25,13,59,7.60
2011,03,25,14,00,7.60
2011,03,25,14,01,7.60
2011,03,25,14,02,7.60
2011,03,25,14,03,7.90
2011,03,25,14,04,7.90
2011,03,25,14,05,7.90
2011,03,25,14,06,7.90
2011,03,25,14,07,7.90
2011,03,25,14,08,7.90
2011,03,25,14,09,7.90
2011,03,25,14,10,7.90
2011,03,25,14,11,8.10
2011,03,25,14,12,8.10
2011,03,25,14,13,8.10
2011,03,25,14,14,8.10
2011,03,25,14,15,8.10
2011,03,25,14,16,8.10
2011,03,25,14,17,8.10
2011,03,25,14,18,8.00
2011,03,25,14,19,8.00
2011,03,25,14,20,8.00
2011,03,25,14,21,8.00
2011,03,25,14,22,8.00
2011,03,25,14,23,8.00
2011,03,25,14,24,8.00
2011,03,25,14,25,7.90
2011,03,25,14,26,7.90
2011,03,25,14,27,7.90
2011,03,25,14,28,7.90
2011,03,25,14,29,7.90
2011,03,25,14,30,7.90
2011,03,25,14,31,7.90
2011,03,25,14,32,7.90
2011,03,25,14,33,7.90
2011,03,25,14,34,8.00
2011,03,25,14,35,8.00
2011,03,25,14,36,8.00
2011,03,25,14,37,8.00
2011,03,25,14,38,8.00
2011,03,25,14,39,8.00
2011,03,25,14,40,8.00
2011,03,25,14,41,8.10
2011,03,25,14,42,8.10
2011,03,25,14,43,8.10
2011,03,25,14,44,8.10
2011,03,25,14,45,8.10
2011,03,25,14,46,8.10
2011,03,25,14,47,8.10
2011,03,25,14,48,8.30
2011,03,25,14,49,8.30
2011,03,25,14,50,8.30
2011,03,25,14,51,8.30
2011,03,25,14,52,8.30
2011,03,25,14,53,8.30
2011,03,25,14,54,8.30
2011,03,25,14,55,8.30
2011,03,25,14,56,8.30
2011,03,25,14,57,8.30
2011,03,25,14,58,8.30
2011,03,25,14,59,8.30
2011,03,25,15,00,8.30
2011,03,25,15,01,8.30
2011,03,25,15,02,8.30
2011,03,25,15,03,8.30
2011,03,25,15,04,8.00
2011,03,25,15,05,8.00
2011,03,25,15,06,8.00
2011,03,25,15,07,8.00
2011,03,25,15,08,8.00
2011,03,25,15,09,8.00
2011,03,25,15,10,8.00
2011,03,25,15,11,8.00
2011,03,25,15,12,8.00
2011,03,25,15,13,8.00
2011,03,25,15,14,8.00
2011,03,25,15,15,8.00
2011,03,25,15,16,8.00
2011,03,25,15,17,8.00
2011,03,25,15,18,7.90
2011,03,25,15,19,7.90
2011,03,25,15,20,7.90
2011,03,25,15,21,7.90
2011,03,25,15,22,7.90
2011,03,25,15,23,7.90
2011,03,25,15,24,7.90
2011,03,25,15,25,8.10
2011,03,25,15,26,8.10
2011,03,25,15,27,8.10
2011,03,25,15,28,8.10
2011,03,25,15,29,8.10
2011,03,25,15,30,8.10
2011,03,25,15,31,8.10
2011,03,25,15,32,8.10
2011,03,25,15,33,8.10
2011,03,25,15,34,8.10
2011,03,25,15,35,8.10
2011,03,25,15,36,8.10
2011,03,25,15,37,8.10
2011,03,25,15,38,8.10
2011,03,25,15,39,8.10
2011,03,25,15,40,8.10
2011,03,25,15,41,7.80
2011,03,25,15,42,7.80
2011,03,25,15,43,7.80
2011,03,25,15,44,7.80
2011,03,25,15,45,7.80
2011,03,25,15,46,7.80
2011,03,25,15,47,7.80
2011,03,25,15,48,7.70
2011,03,25,15,49,7.70
2011,03,25,15,50,7.70
2011,03,25,15,51,7.70
2011,03,25,15,52,7.70
2011,03,25,15,53,7.70
2011,03,25,15,54,7.70
2011,03,25,15,55,7.70
2011,03,25,15,56,7.70
2011,03,25,15,57,7.70
2011,03,25,15,58,7.70
2011,03,25,15,59,7.70
2011,03,25,16,00,7.70
2011,03,25,16,01,7.70
2011,03,25,16,02,7.70
2011,03,25,16,03,7.60
2011,03,25,16,04,7.60
2011,03,25,16,05,7.60
2011,03,25,16,06,7.60
2011,03,25,16,07,7.60
2011,03,25,16,08,7.60
2011,03,25,16,09,7.60
2011,03,25,16,10,7.40
2011,03,25,16,11,7.40
2011,03,25,16,12,7.40
2011,03,25,16,13,7.40
2011,03,25,16,14,7.40
2011,03,25,16,15,7.40
2011,03,25,16,16,7.40
2011,03,25,16,17,7.40
2011,03,25,16,18,7.30
2011,03,25,16,19,7.30
2011,03,25,16,20,7.30
2011,03,25,16,21,7.30
2011,03,25,16,22,7.30
2011,03,25,16,23,7.30
2011,03,25,16,24,7.30
2011,03,25,16,25,7.30
2011,03,25,16,26,7.20
2011,03,25,16,27,7.20
2011,03,25,16,28,7.20
2011,03,25,16,29,7.20
2011,03,25,16,30,7.20
2011,03,25,16,31,7.20
2011,03,25,16,32,7.20
2011,03,25,16,33,7.20
2011,03,25,16,34,7.20
2011,03,25,16,35,7.20
2011,03,25,16,36,7.20
2011,03,25,16,37,7.20
2011,03,25,16,38,7.20
2011,03,25,16,39,7.20
2011,03,25,16,40,7.20
2011,03,25,16,41,7.20
2011,03,25,16,42,7.20
2011,03,25,16,43,7.20
2011,03,25,16,44,7.20
2011,03,25,16,45,7.20
2011,03,25,16,46,7.20
2011,03,25,16,47,7.20
2011,03,25,16,48,7.20
2011,03,25,16,49,7.20
2011,03,25,16,50,7.20
2011,03,25,16,51,7.20
2011,03,25,16,52,7.20
2011,03,25,16,53,7.20
2011,03,25,16,54,7.20
2011,03,25,16,55,7.20
2011,03,25,16,56,7.20
2011,03,25,16,57,7.20
2011,03,25,16,58,7.20
2011,03,25,16,59,7.20
2011,03,25,17,00,7.20
2011,03,25,17,01,7.20
2011,03,25,17,02,7.20
2011,03,25,17,03,7.20
2011,03,25,17,04,7.30
2011,03,25,17,05,7.30
2011,03,25,17,06,7.30
2011,03,25,17,07,7.30
2011,03,25,17,08,7.30
2011,03,25,17,09,7.30
2011,03,25,17,10,7.30
2011,03,25,17,11,7.30
2011,03,25,17,12,7.30
2011,03,25,17,13,7.30
2011,03,25,17,14,7.30
2011,03,25,17,15,7.30
2011,03,25,17,16,7.30
2011,03,25,17,17,7.30
2011,03,25,17,18,7.30
2011,03,25,17,19,7.30
2011,03,25,17,20,7.30
2011,03,25,17,21,7.30
2011,03,25,17,22,7.30
2011,03,25,17,23,7.30
2011,03,25,17,24,7.30
2011,03,25,17,25,7.30
2011,03,25,17,26,7.30
2011,03,25,17,27,7.30
2011,03,25,17,28,7.30
2011,03,25,17,29,7.30
2011,03,25,17,30,7.30
2011,03,25,17,31,7.30
2011,03,25,17,32,7.30
2011,03,25,17,33,7.30
2011,03,25,17,34,7.30
2011,03,25,17,35,7.30
2011,03,25,17,36,7.30
2011,03,25,17,37,7.30
2011,03,25,17,38,7.30
2011,03,25,17,39,7.30
2011,03,25,17,40,7.30
2011,03,25,17,41,7.40
2011,03,25,17,42,7.40
2011,03,25,17,43,7.40
2011,03,25,17,44,7.40
2011,03,25,17,45,7.40
2011,03,25,17,46,7.40
2011,03,25,17,47,7.40
2011,03,25,17,48,7.40
2011,03,25,17,49,7.40
2011,03,25,17,50,7.40
2011,03,25,17,51,7.40
2011,03,25,17,52,7.40
2011,03,25,17,53,7.40
2011,03,25,17,54,7.40
2011,03,25,17,55,7.40
2011,03,25,17,56,7.40
2011,03,25,17,57,7.40
2011,03,25,17,58,7.40
2011,03,25,17,59,7.40
2011,03,25,18,00,7.40
2011,03,25,18,01,7.40
2011,03,25,18,02,7.40
2011,03,25,18,03,7.40
2011,03,25,18,04,7.60
2011,03,25,18,05,7.60
2011,03,25,18,06,7.60
2011,03,25,18,07,7.60
2011,03,25,18,08,7.60
2011,03,25,18,09,7.60
2011,03,25,18,10,7.60
2011,03,25,18,11,7.60
2011,03,25,18,12,7.60
2011,03,25,18,13,7.60
2011,03,25,18,14,7.60
2011,03,25,18,15,7.60
2011,03,25,18,16,7.60
2011,03,25,18,17,7.60
2011,03,25,18,18,7.50
2011,03,25,18,19,7.50
2011,03,25,18,20,7.50
2011,03,25,18,21,7.50
2011,03,25,18,22,7.50
2011,03,25,18,23,7.50
2011,03,25,18,24,7.50
2011,03,25,18,25,7.50
2011,03,25,18,26,7.50
2011,03,25,18,27,7.50
2011,03,25,18,28,7.50
2011,03,25,18,29,7.50
2011,03,25,18,30,7.50
2011,03,25,18,31,7.50
2011,03,25,18,32,7.50
2011,03,25,18,33,7.40
2011,03,25,18,34,7.40
2011,03,25,18,35,7.40
2011,03,25,18,36,7.40
2011,03,25,18,37,7.40
2011,03,25,18,38,7.40
2011,03,25,18,39,7.40
2011,03,25,18,40,7.40
2011,03,25,18,41,7.50
2011,03,25,18,42,7.50
2011,03,25,18,43,7.50
2011,03,25,18,44,7.50
2011,03,25,18,45,7.50
2011,03,25,18,46,7.50
2011,03,25,18,47,7.50
2011,03,25,18,48,7.50
2011,03,25,18,49,7.50
2011,03,25,18,50,7.50
2011,03,25,18,51,7.50
2011,03,25,18,52,7.50
2011,03,25,18,53,7.50
2011,03,25,18,54,7.50
2011,03,25,18,55,7.60
2011,03,25,18,56,7.60
2011,03,25,18,57,7.60
2011,03,25,18,58,7.60
2011,03,25,18,59,7.60
2011,03,25,19,00,7.60
2011,03,25,19,01,7.60
2011,03,25,19,02,7.60
2011,03,25,19,03,7.60
2011,03,25,19,04,7.60
2011,03,25,19,05,7.60
2011,03,25,19,06,7.60
2011,03,25,19,07,7.60
2011,03,25,19,08,7.60
2011,03,25,19,09,7.60
2011,03,25,19,10,7.50
2011,03,25,19,11,7.50
2011,03,25,19,12,7.50
2011,03,25,19,13,7.50